QPF
0.00 0.00 0.00 0.00 0.00 0.00 0.00 0.00 0.00 0.00 0.00 0.00 0.00 0.00 0.00 0.00 0.00 0.00 0.00 0.00 0.00 0.00 0.00 0.00 0.00 0.00 0.00 0.00 0.00 0.00 0.00 0.00 0.00 0.00 0.00 0.00 0.00 0.00 0.00 0.01 0.01 0.01 0.01 0.01 0.01 0.01 0.00 0.00 0.00
0.00 0.00 0.00 0.00 0.00 0.00 0.00 0.00 0.00 0.00 0.00 0.00 0.00 0.00 0.00 0.00 0.00 0.00 0.00 0.00 0.00 0.00 0.00 0.00 0.00 0.00 0.00 0.00 0.00 0.00 0.00 0.00 0.00 0.00 0.00 0.00 0.00 0.00 0.00 0.00 0.00 0.00 0.00 0.00 0.00 0.00 0.00 0.00 0.00
0.00 0.00 0.00 0.00 0.00 0.00 0.00 0.00 0.00 0.00 0.00 0.00 0.00 0.00 0.00 0.00 0.00 0.00 0.00 0.00 0.00 0.00 0.00 0.00 0.00 0.00 0.00 0.00 0.00 0.00 0.00 0.00 0.00 0.00 0.00 0.00 0.00 0.00 0.00 0.00 0.00 0.00 0.00 0.00 0.00 0.00 0.00 0.00 0.00
0.00 0.00 0.00 0.00 0.00 0.00 0.00 0.00 0.00 0.00 0.00 0.00 0.00 0.00 0.00 0.00 0.00 0.00 0.00 0.00 0.00 0.00 0.00 0.00 0.00 0.00 0.00 0.00 0.00 0.00 0.00 0.00 0.00 0.00 0.00 0.00 0.00 0.00 0.00 0.00 0.00 0.00 0.00 0.00 0.00 0.00 0.00 0.00 0.00
0.00 0.00 0.00 0.00 0.00 0.00 0.00 0.00 0.00 0.00 0.00 0.00 0.00 0.00 0.00 0.00 0.00 0.00 0.00 0.00 0.00 0.00 0.00 0.00 0.00 0.00 0.00 0.00 0.00 0.00 0.00 0.00 0.00 0.00 0.00 0.00 0.00 0.00 0.00 0.00 0.00 0.00 0.00 0.00 0.00 0.00 0.01 0.01 0.01
0.00 0.00 0.00 0.00 0.00 0.00 0.00 0.00 0.00 0.00 0.00 0.00 0.00 0.00 0.00 0.00 0.00 0.00 0.00 0.00 0.00 0.00 0.00 0.00 0.00 0.00 0.00 0.00 0.00 0.00 0.00 0.00 0.00 0.00 0.00 0.00 0.00 0.00 0.00 0.00 0.00 0.00 0.00 0.00 0.00 0.01 0.00 0.01 0.02
0.00 0.00 0.00 0.00 0.00 0.00 0.00 0.00 0.00 0.00 0.00 0.00 0.00 0.00 0.00 0.00 0.00 0.00 0.00 0.00 0.00 0.00 0.00 0.00 0.00 0.00 0.00 0.00 0.00 0.00 0.00 0.00 0.00 0.00 0.00 0.00 0.00 0.00 0.00 0.00 0.00 0.00 0.00 0.00 0.00 0.00 0.00 0.00 0.04
0.00 0.00 0.00 0.00 0.00 0.00 0.00 0.00 0.00 0.00 0.00 0.00 0.00 0.00 0.00 0.00 0.00 0.00 0.00 0.00 0.00 0.00 0.00 0.00 0.00 0.00 0.00 0.00 0.00 0.00 0.00 0.00 0.00 0.00 0.00 0.00 0.00 0.00 0.00 0.00 0.00 0.00 0.00 0.00 0.00 0.00 0.00 0.02 0.01
0.00 0.00 0.00 0.00 0.00 0.00 0.00 0.00 0.00 0.00 0.00 0.00 0.00 0.00 0.00 0.00 0.00 0.00 0.00 0.00 0.00 0.00 0.00 0.00 0.00 0.00 0.00 0.00 0.00 0.00 0.00 0.00 0.00 0.00 0.00 0.00 0.00 0.00 0.00 0.00 0.00 0.00 0.00 0.00 0.00 0.00 0.00 0.01 0.00
0.00 0.00 0.00 0.00 0.00 0.00 0.00 0.00 0.00 0.00 0.00 0.00 0.00 0.00 0.00 0.00 0.00 0.00 0.00 0.00 0.00 0.00 0.00 0.00 0.00 0.00 0.00 0.00 0.00 0.00 0.00 0.00 0.00 0.00 0.00 0.00 0.00 0.00 0.00 0.00 0.00 0.00 0.00 0.00 0.00 0.00 0.00 0.00 0.00
0.00 0.00 0.00 0.00 0.00 0.00 0.00 0.00 0.00 0.00 0.00 0.00 0.00 0.00 0.00 0.00 0.00 0.00 0.00 0.00 0.00 0.00 0.00 0.00 0.00 0.00 0.00 0.00 0.00 0.00 0.00 0.00 0.00 0.00 0.00 0.00 0.00 0.00 0.00 0.00 0.00 0.00 0.00 0.00 0.00 0.00 0.00 0.00 0.00
0.00 0.00 0.00 0.00 0.00 0.00 0.00 0.00 0.00 0.00 0.00 0.00 0.00 0.00 0.00 0.00 0.00 0.00 0.00 0.00 0.00 0.00 0.00 0.00 0.00 0.00 0.00 0.00 0.00 0.00 0.00 0.00 0.00 0.00 0.00 0.00 0.00 0.00 0.00 0.00 0.00 0.00 0.00 0.00 0.00 0.00 0.00 0.00 0.00
0.00 0.00 0.00 0.00 0.00 0.00 0.00 0.00 0.00 0.00 0.00 0.00 0.00 0.00 0.00 0.00 0.00 0.00 0.00 0.00 0.00 0.00 0.00 0.00 0.00 0.00 0.00 0.00 0.00 0.00 0.00 0.00 0.00 0.00 0.00 0.00 0.00 0.00 0.00 0.00 0.00 0.00 0.00 0.00 0.00 0.00 0.00 0.00 0.00
0.00 0.00 0.00 0.00 0.00 0.00 0.00 0.00 0.00 0.00 0.00 0.00 0.00 0.00 0.00 0.00 0.00 0.00 0.00 0.00 0.00 0.00 0.00 0.00 0.00 0.00 0.00 0.00 0.00 0.00 0.00 0.00 0.00 0.00 0.00 0.00 0.00 0.00 0.00 0.00 0.00 0.00 0.00 0.00 0.00 0.00 0.00 0.00 0.00
0.00 0.00 0.00 0.00 0.00 0.00 0.00 0.00 0.00 0.00 0.00 0.00 0.00 0.00 0.00 0.00 0.00 0.00 0.00 0.00 0.00 0.00 0.00 0.00 0.00 0.00 0.00 0.00 0.00 0.00 0.00 0.00 0.00 0.00 0.00 0.00 0.00 0.00 0.00 0.00 0.00 0.00 0.00 0.00 0.00 0.00 0.00 0.00 0.00
0.00 0.00 0.00 0.00 0.00 0.00 0.00 0.00 0.00 0.00 0.00 0.00 0.00 0.00 0.00 0.00 0.00 0.00 0.00 0.00 0.00 0.00 0.00 0.00 0.00 0.00 0.00 0.00 0.00 0.00 0.00 0.00 0.00 0.00 0.00 0.00 0.00 0.00 0.00 0.00 0.00 0.00 0.00 0.00 0.00 0.00 0.00 0.00 0.00
0.00 0.00 0.00 0.00 0.00 0.00 0.00 0.00 0.00 0.00 0.00 0.00 0.00 0.00 0.00 0.00 0.00 0.00 0.00 0.00 0.00 0.00 0.00 0.00 0.00 0.00 0.00 0.00 0.00 0.00 0.00 0.00 0.00 0.00 0.00 0.00 0.00 0.00 0.00 0.00 0.00 0.00 0.00 0.00 0.00 0.00 0.00 0.00 0.00
0.00 0.00 0.00 0.00 0.00 0.00 0.00 0.00 0.00 0.00 0.00 0.00 0.00 0.00 0.00 0.00 0.00 0.00 0.00 0.00 0.00 0.00 0.00 0.00 0.00 0.00 0.00 0.00 0.00 0.00 0.00 0.00 0.00 0.00 0.00 0.00 0.00 0.00 0.00 0.00 0.00 0.00 0.00 0.00 0.00 0.00 0.00 0.00 0.00
0.00 0.00 0.00 0.00 0.00 0.00 0.00 0.00 0.00 0.00 0.00 0.00 0.00 0.00 0.00 0.00 0.00 0.00 0.00 0.00 0.00 0.00 0.00 0.00 0.00 0.00 0.00 0.00 0.00 0.00 0.00 0.00 0.00 0.00 0.00 0.00 0.00 0.00 0.00 0.00 0.00 0.00 0.00 0.00 0.00 0.00 0.00 0.00 0.00
0.00 0.00 0.00 0.00 0.00 0.00 0.00 0.00 0.00 0.00 0.00 0.00 0.00 0.00 0.00 0.00 0.00 0.00 0.00 0.00 0.00 0.00 0.00 0.00 0.00 0.00 0.00 0.00 0.00 0.00 0.00 0.00 0.00 0.00 0.00 0.00 0.00 0.00 0.00 0.00 0.00 0.00 0.00 0.00 0.00 0.00 0.00 0.00 0.00
0.00 0.00 0.00 0.00 0.00 0.00 0.00 0.00 0.00 0.00 0.00 0.00 0.00 0.00 0.00 0.00 0.00 0.00 0.00 0.00 0.00 0.00 0.00 0.00 0.00 0.00 0.01 0.01 0.00 0.00 0.00 0.00 0.00 0.00 0.00 0.00 0.00 0.00 0.00 0.00 0.00 0.00 0.00 0.00 0.00 0.00 0.00 0.00 0.00
0.00 0.00 0.00 0.00 0.00 0.00 0.00 0.00 0.00 0.00 0.00 0.00 0.00 0.00 0.00 0.00 0.00 0.00 0.00 0.00 0.00 0.00 0.00 0.00 0.00 0.00 0.00 0.02 0.00 0.00 0.00 0.00 0.00 0.02 0.02 0.01 0.00 0.00 0.00 0.00 0.00 0.00 0.00 0.00 0.00 0.00 0.00 0.00 0.01
0.00 0.00 0.00 0.00 0.00 0.00 0.00 0.00 0.00 0.00 0.00 0.00 0.00 0.00 0.00 0.00 0.00 0.00 0.00 0.00 0.00 0.00 0.00 0.01 0.01 0.00 0.00 0.01 0.00 0.00 0.00 0.00 0.01 0.01 0.06 0.02 0.02 0.01 0.01 0.00 0.00 0.00 0.00 0.00 0.00 0.00 0.00 0.01 0.03
0.00 0.00 0.00 0.00 0.00 0.00 0.00 0.00 0.00 0.00 0.00 0.00 0.00 0.00 0.00 0.00 0.00 0.00 0.00 0.00 0.00 0.00 0.00 0.01 0.01 0.01 0.00 0.01 0.00 0.00 0.01 0.01 0.00 0.01 0.04 0.06 0.03 0.00 0.00 0.02 0.00 0.00 0.00 0.02 0.05 0.03 0.06 0.11 0.06
0.00 0.00 0.00 0.00 0.00 0.00 0.00 0.00 0.00 0.00 0.00 0.00 0.00 0.00 0.00 0.00 0.00 0.00 0.00 0.00 0.00 0.00 0.00 0.02 0.02 0.01 0.01 0.01 0.01 0.01 0.01 0.02 0.02 0.08 0.09 0.06 0.04 0.03 0.00 0.01 0.00 0.00 0.00 0.01 0.02 0.06 0.07 0.02 0.00
0.00 0.00 0.00 0.00 0.00 0.00 0.00 0.00 0.00 0.00 0.00 0.00 0.00 0.00 0.00 0.00 0.00 0.00 0.00 0.00 0.00 0.00 0.00 0.03 0.03 0.02 0.01 0.03 0.03 0.02 0.02 0.01 0.01 0.08 0.08 0.05 0.01 0.00 0.00 0.00 0.00 0.00 0.00 0.00 0.02 0.05 0.02 0.00 0.00
0.00 0.00 0.00 0.00 0.00 0.00 0.00 0.00 0.00 0.00 0.00 0.00 0.00 0.00 0.00 0.00 0.00 0.00 0.00 0.00 0.00 0.00 0.01 0.03 0.06 0.03 0.01 0.02 0.02 0.02 0.02 0.00 0.00 0.04 0.07 0.07 0.02 0.00 0.00 0.00 0.00 0.00 0.00 0.01 0.02 0.01 0.00 0.00 0.00
0.00 0.00 0.00 0.00 0.00 0.00 0.00 0.00 0.00 0.00 0.00 0.00 0.00 0.00 0.00 0.00 0.00 0.00 0.00 0.00 0.00 0.00 0.03 0.16 0.41 0.18 0.04 0.03 0.03 0.01 0.01 0.02 0.03 0.06 0.04 0.02 0.00 0.01 0.02 0.00 0.00 0.00 0.00 0.00 0.00 0.00 0.00 0.00 0.00
0.00 0.00 0.00 0.00 0.00 0.00 0.00 0.00 0.00 0.00 0.00 0.00 0.00 0.00 0.00 0.00 0.00 0.00 0.00 0.00 0.00 0.03 0.21 0.69 0.90 0.73 0.77 0.14 0.02 0.01 0.01 0.01 0.01 0.01 0.00 0.00 0.00 0.02 0.01 0.00 0.00 0.00 0.00 0.00 0.00 0.00 0.00 0.00 0.00
0.00 0.00 0.00 0.00 0.00 0.00 0.00 0.00 0.00 0.00 0.00 0.00 0.00 0.00 0.00 0.00 0.00 0.00 0.00 0.00 0.00 0.07 0.25 0.24 0.38 0.79 0.59 0.08 0.00 0.00 0.00 0.00 0.00 0.00 0.00 0.00 0.00 0.00 0.00 0.00 0.00 0.00 0.00 0.00 0.00 0.00 0.00 0.00 0.00
MSLP
1010.60 1010.53 1010.34 1009.81 1009.48 1008.83 1008.44 1008.55 1008.69 1008.84 1009.33 1009.95 1010.27 1010.76 1011.36 1012.29 1012.83 1014.28 1015.21 1015.24 1015.35 1015.71 1016.19 1016.63 1016.98 1017.20 1017.45 1017.62 1017.67 1017.78 1017.80 1017.84 1017.94 1017.95 1017.96 1017.94 1017.97 1017.86 1017.72 1017.59 1017.50 1017.45 1017.45 1017.48 1017.49 1017.53 1017.55 1017.60 1017.59
1010.34 1010.26 1009.81 1009.16 1008.52 1007.93 1008.26 1008.48 1008.54 1009.10 1009.97 1010.36 1010.76 1011.27 1011.79 1012.70 1013.57 1014.44 1014.91 1015.29 1015.43 1015.85 1016.29 1016.61 1017.17 1017.47 1017.59 1017.71 1017.74 1017.72 1017.73 1017.83 1017.93 1017.96 1018.01 1018.02 1018.02 1017.85 1017.74 1017.73 1017.71 1017.77 1017.82 1017.82 1017.81 1017.73 1017.66 1017.71 1017.79
1010.15 1010.00 1009.13 1008.58 1008.29 1007.76 1007.89 1008.31 1008.61 1009.42 1010.02 1010.21 1010.87 1011.62 1012.30 1013.22 1013.94 1014.24 1014.61 1015.15 1015.57 1016.10 1016.55 1016.87 1017.33 1017.51 1017.64 1017.71 1017.82 1017.93 1018.02 1018.09 1018.15 1018.22 1018.31 1018.31 1018.29 1018.20 1018.14 1018.09 1018.05 1018.06 1018.10 1018.09 1018.07 1017.95 1017.91 1017.96 1018.01
1009.94 1009.49 1009.44 1008.46 1007.74 1007.84 1007.98 1008.32 1008.95 1009.44 1010.05 1010.49 1011.04 1011.91 1012.97 1013.64 1013.96 1014.36 1015.07 1015.16 1015.73 1016.21 1016.48 1017.08 1017.38 1017.58 1017.76 1017.90 1017.97 1018.09 1018.17 1018.24 1018.33 1018.47 1018.59 1018.61 1018.60 1018.60 1018.61 1018.57 1018.49 1018.47 1018.36 1018.29 1018.27 1018.17 1018.02 1018.08 1018.16
1010.00 1009.31 1008.45 1008.07 1007.71 1007.84 1008.06 1008.43 1009.07 1009.54 1010.14 1010.73 1011.26 1012.44 1013.32 1014.20 1014.40 1014.96 1015.29 1015.57 1015.84 1016.20 1016.50 1016.96 1017.56 1017.78 1017.98 1018.10 1018.19 1018.20 1018.23 1018.27 1018.31 1018.47 1018.60 1018.67 1018.72 1018.74 1018.71 1018.69 1018.67 1018.70 1018.64 1018.57 1018.39 1018.27 1018.13 1018.05 1018.13
1009.49 1009.27 1008.15 1007.65 1007.55 1007.61 1007.90 1008.32 1008.92 1009.47 1010.17 1011.04 1011.64 1012.47 1013.68 1014.63 1014.93 1015.32 1015.50 1015.73 1015.96 1016.35 1016.67 1017.11 1017.77 1018.00 1018.09 1018.18 1018.30 1018.36 1018.39 1018.43 1018.46 1018.55 1018.71 1018.79 1018.78 1018.76 1018.80 1018.92 1018.91 1018.93 1018.92 1018.79 1018.67 1018.54 1018.41 1018.38 1018.50
1009.02 1008.65 1008.15 1007.86 1007.48 1007.44 1007.64 1008.32 1008.54 1009.18 1009.99 1010.83 1011.65 1012.39 1013.96 1014.53 1015.08 1015.56 1015.89 1016.13 1016.24 1016.56 1016.87 1017.10 1017.47 1017.89 1018.14 1018.32 1018.44 1018.58 1018.63 1018.68 1018.70 1018.78 1018.89 1018.97 1019.03 1019.10 1019.19 1019.22 1019.26 1019.28 1019.19 1019.09 1019.00 1018.84 1018.74 1018.70 1018.71
1009.11 1008.54 1008.17 1007.82 1007.33 1007.27 1007.73 1008.21 1008.75 1008.93 1010.04 1010.93 1011.43 1011.89 1013.16 1014.15 1015.19 1015.80 1016.13 1016.33 1016.54 1016.91 1016.88 1017.16 1017.42 1017.53 1017.76 1018.00 1018.49 1018.66 1018.77 1018.82 1018.87 1019.02 1019.02 1019.10 1019.13 1019.18 1019.28 1019.38 1019.31 1019.41 1019.39 1019.29 1019.21 1019.07 1018.98 1018.96 1018.97
1009.16 1008.28 1007.53 1007.31 1007.26 1007.23 1007.84 1007.95 1009.01 1009.36 1009.94 1010.78 1011.49 1011.79 1012.52 1014.14 1015.07 1015.59 1015.95 1016.22 1016.42 1017.04 1017.10 1017.17 1017.42 1017.65 1017.69 1017.80 1018.21 1018.61 1018.71 1018.77 1018.88 1019.00 1019.09 1019.02 1018.78 1018.82 1018.84 1019.24 1019.39 1019.42 1019.44 1019.44 1019.37 1019.30 1019.27 1019.17 1019.21
1008.35 1007.86 1007.38 1007.26 1007.14 1007.03 1007.58 1007.79 1008.62 1009.27 1009.97 1010.74 1011.73 1012.54 1013.30 1014.28 1014.73 1015.04 1015.41 1015.70 1016.07 1016.57 1017.11 1017.11 1017.37 1017.46 1017.64 1017.85 1017.97 1018.16 1018.18 1018.25 1018.68 1018.76 1019.03 1018.95 1019.03 1018.98 1018.94 1019.16 1019.38 1019.44 1019.56 1019.69 1019.65 1019.55 1019.48 1019.43 1019.10
1008.29 1007.41 1007.34 1006.95 1006.99 1007.07 1007.32 1007.99 1008.55 1009.04 1009.89 1010.41 1011.24 1012.30 1013.17 1013.90 1014.53 1014.76 1015.12 1015.35 1015.64 1016.12 1016.67 1016.97 1017.23 1017.63 1017.61 1017.65 1018.15 1018.17 1018.26 1018.44 1018.56 1018.72 1018.86 1018.96 1019.01 1019.02 1018.93 1018.91 1018.92 1019.13 1019.54 1019.11 1019.32 1019.18 1019.15 1019.32 1019.23
1007.92 1007.45 1007.19 1006.69 1006.97 1006.96 1007.02 1007.53 1008.35 1008.81 1009.54 1009.94 1010.84 1012.10 1012.85 1013.44 1014.01 1014.34 1014.62 1015.11 1015.51 1016.00 1016.37 1016.69 1016.93 1017.45 1017.77 1017.80 1018.01 1018.18 1018.36 1018.46 1018.44 1018.55 1018.85 1018.97 1018.84 1019.04 1019.04 1019.10 1018.95 1019.17 1019.33 1019.22 1019.30 1019.28 1019.52 1019.46 1019.52
1007.65 1007.10 1007.04 1006.86 1007.04 1006.76 1006.93 1007.23 1007.79 1008.79 1009.52 1009.99 1010.88 1012.14 1012.58 1012.98 1013.46 1014.10 1014.37 1014.90 1015.23 1015.64 1016.05 1016.39 1016.61 1017.03 1017.48 1017.88 1017.90 1018.08 1018.18 1018.26 1018.22 1018.49 1018.72 1018.82 1018.90 1018.91 1018.98 1018.96 1019.12 1019.24 1019.39 1019.37 1019.54 1019.43 1019.35 1019.46 1019.56
1007.09 1007.09 1006.89 1006.86 1006.94 1006.89 1006.83 1007.52 1007.87 1008.88 1009.44 1010.39 1011.16 1011.82 1012.38 1012.85 1013.30 1013.85 1014.16 1014.34 1014.78 1015.09 1015.61 1016.06 1016.47 1016.95 1017.22 1017.48 1017.76 1017.90 1018.06 1018.11 1018.16 1018.19 1018.37 1018.63 1018.67 1018.63 1018.86 1018.71 1018.84 1019.17 1019.28 1019.19 1019.23 1019.46 1019.49 1019.22 1019.37
1007.09 1006.94 1007.02 1006.90 1006.84 1006.83 1007.03 1007.53 1007.36 1008.58 1009.24 1010.22 1010.96 1011.59 1012.19 1012.71 1013.14 1013.20 1013.52 1013.88 1014.25 1014.57 1015.20 1015.80 1016.29 1016.64 1016.99 1017.06 1017.42 1017.52 1017.73 1017.90 1017.92 1018.03 1018.31 1018.34 1018.38 1018.51 1018.66 1018.54 1018.57 1018.90 1019.15 1019.33 1019.49 1019.49 1019.72 1019.37 1019.40
1006.87 1006.82 1006.48 1007.01 1007.06 1007.13 1006.83 1006.02 1006.84 1008.14 1008.88 1009.78 1010.62 1011.20 1011.73 1012.29 1012.43 1012.76 1013.17 1013.75 1014.13 1014.37 1014.68 1015.41 1015.73 1016.17 1016.61 1016.75 1017.08 1017.34 1017.67 1017.87 1017.88 1017.94 1017.97 1018.08 1018.24 1018.47 1018.48 1018.25 1018.36 1018.60 1018.86 1018.93 1019.21 1019.57 1019.59 1019.55 1019.61
1006.83 1006.19 1006.36 1006.84 1007.01 1006.85 1006.88 1006.19 1006.72 1007.78 1008.48 1009.12 1010.00 1010.70 1011.21 1011.47 1012.07 1012.32 1012.72 1013.11 1013.42 1013.92 1014.29 1014.77 1015.17 1015.53 1015.98 1016.50 1016.90 1017.07 1017.36 1017.41 1017.42 1017.57 1017.60 1017.78 1017.94 1018.18 1018.53 1018.53 1018.28 1018.59 1018.70 1018.99 1019.13 1019.41 1019.57 1019.62 1019.63
1006.27 1006.22 1006.40 1006.34 1006.69 1006.70 1006.63 1006.58 1007.07 1007.69 1008.26 1008.55 1009.22 1009.86 1010.35 1010.72 1010.70 1011.22 1011.93 1012.30 1012.87 1013.33 1013.82 1014.37 1014.92 1015.32 1015.86 1016.32 1016.72 1016.79 1017.10 1017.11 1017.02 1016.98 1017.03 1017.25 1017.43 1017.76 1018.09 1018.21 1018.40 1018.56 1018.69 1018.76 1018.92 1019.23 1019.57 1019.54 1019.47
1006.80 1006.37 1005.94 1006.31 1006.58 1006.63 1006.46 1006.52 1006.81 1007.61 1008.11 1008.20 1008.41 1008.97 1009.34 1009.57 1009.75 1010.44 1010.93 1011.55 1012.23 1012.94 1013.45 1013.93 1014.43 1014.78 1015.52 1016.01 1016.22 1016.49 1016.45 1016.65 1016.64 1016.61 1016.82 1016.91 1017.00 1017.20 1017.64 1017.78 1018.14 1018.33 1018.47 1018.65 1019.04 1019.14 1019.35 1019.35 1019.57
1007.08 1006.79 1006.59 1006.51 1006.73 1006.72 1006.44 1006.41 1006.49 1007.33 1007.17 1007.24 1007.63 1008.17 1008.32 1008.60 1009.19 1009.65 1010.15 1010.93 1011.44 1011.78 1012.40 1013.37 1013.80 1014.50 1015.13 1015.32 1015.45 1015.77 1016.00 1016.17 1016.27 1016.34 1016.69 1016.82 1016.78 1017.03 1017.25 1017.51 1017.82 1018.10 1018.33 1018.74 1018.78 1019.05 1018.97 1019.11 1019.26
1007.22 1006.90 1006.89 1006.63 1006.79 1006.99 1006.96 1006.59 1006.61 1006.69 1006.83 1007.07 1007.19 1007.40 1007.89 1007.73 1008.14 1008.64 1009.32 1009.94 1010.59 1011.10 1011.77 1012.52 1013.00 1013.75 1014.43 1014.69 1015.29 1015.78 1015.98 1016.17 1016.27 1016.42 1016.65 1016.35 1016.46 1016.54 1017.13 1017.14 1017.33 1017.61 1017.87 1018.09 1018.59 1018.57 1018.76 1018.73 1019.08
1006.88 1006.73 1006.79 1006.92 1006.98 1006.59 1006.95 1006.05 1006.11 1006.02 1006.17 1006.27 1006.27 1006.56 1006.59 1006.84 1007.21 1007.62 1008.32 1009.03 1009.47 1009.97 1010.99 1011.68 1012.27 1013.19 1013.64 1014.33 1014.61 1014.90 1015.05 1015.34 1015.55 1015.92 1016.22 1016.23 1016.30 1016.29 1016.42 1016.88 1016.65 1016.89 1017.04 1017.39 1017.92 1018.36 1018.39 1018.74 1018.76
1006.46 1006.68 1006.85 1006.92 1006.75 1006.68 1006.62 1006.21 1005.40 1005.62 1005.08 1004.77 1004.84 1005.00 1005.32 1005.60 1006.03 1006.49 1007.17 1007.67 1008.24 1009.17 1009.97 1010.88 1011.97 1012.84 1013.35 1013.94 1013.93 1014.27 1014.74 1015.13 1015.53 1015.62 1015.77 1016.01 1016.07 1016.01 1016.09 1016.59 1017.12 1016.46 1016.78 1017.32 1017.64 1017.83 1018.29 1018.61 1018.82
1006.43 1006.81 1007.22 1007.31 1006.78 1006.12 1005.57 1005.32 1004.40 1004.27 1003.61 1003.11 1003.14 1003.53 1003.88 1004.41 1005.05 1005.52 1006.18 1007.00 1007.58 1008.59 1009.75 1010.54 1011.29 1012.13 1012.85 1013.56 1013.66 1013.87 1014.21 1014.79 1015.08 1015.12 1015.27 1015.49 1015.79 1016.03 1016.01 1016.53 1016.83 1016.85 1016.66 1017.27 1017.61 1017.41 1018.06 1018.68 1018.71
1006.33 1006.39 1006.51 1006.51 1006.23 1005.23 1005.48 1005.12 1003.72 1003.16 1002.66 1002.33 1001.94 1002.30 1002.96 1003.60 1004.29 1004.53 1005.18 1005.81 1006.77 1007.82 1009.06 1010.05 1010.95 1011.71 1012.58 1013.35 1013.61 1013.69 1013.92 1014.40 1014.93 1015.21 1015.25 1015.16 1015.66 1015.78 1016.09 1016.34 1016.88 1016.45 1016.52 1016.75 1017.41 1017.19 1017.53 1018.05 1018.21
1005.88 1006.13 1005.69 1005.39 1005.43 1005.14 1005.46 1004.17 1002.82 1002.63 1002.49 1002.23 1002.26 1002.30 1002.54 1002.56 1002.85 1003.29 1003.43 1004.46 1005.62 1006.86 1008.15 1009.26 1010.05 1011.09 1011.79 1012.78 1013.42 1013.57 1013.77 1014.03 1014.45 1014.79 1015.32 1015.64 1015.50 1015.87 1016.13 1016.56 1016.92 1016.16 1016.33 1016.55 1017.17 1016.69 1017.33 1017.77 1018.08
1005.92 1006.04 1006.05 1005.73 1006.27 1005.56 1004.49 1003.90 1002.93 1002.41 1002.08 1002.02 1001.81 1002.15 1002.15 1001.93 1002.03 1002.32 1002.94 1004.16 1005.59 1007.44 1008.97 1010.58 1011.67 1012.05 1011.39 1011.53 1012.88 1013.71 1013.69 1013.69 1013.91 1014.69 1015.43 1015.72 1015.91 1016.25 1016.38 1016.60 1016.73 1016.16 1016.12 1016.32 1016.40 1016.43 1017.05 1017.65 1017.91
1005.84 1006.20 1006.19 1006.00 1005.54 1004.91 1004.12 1003.62 1002.61 1002.25 1001.71 1001.70 1001.82 1002.27 1002.52 1002.57 1002.48 1003.22 1003.94 1005.29 1006.55 1007.77 1009.10 1009.55 1010.20 1012.55 1012.74 1011.38 1012.55 1013.18 1013.32 1013.58 1013.85 1014.52 1015.06 1015.61 1015.92 1016.16 1016.28 1016.53 1016.35 1015.86 1015.95 1016.34 1016.65 1017.19 1017.43 1017.68 1017.59
1006.09 1005.98 1006.47 1006.47 1005.91 1004.84 1004.14 1003.07 1002.80 1002.48 1002.34 1002.18 1002.10 1002.79 1003.30 1003.69 1003.86 1004.44 1005.56 1006.27 1006.70 1007.28 1008.07 1008.53 1008.19 1011.43 1012.03 1011.42 1012.41 1012.24 1013.34 1013.68 1013.81 1014.15 1014.77 1015.34 1015.65 1015.80 1015.99 1016.13 1016.10 1016.12 1016.44 1016.87 1017.02 1017.17 1017.34 1017.54 1017.53
1006.29 1006.07 1006.30 1006.23 1006.13 1005.62 1004.76 1003.21 1002.85 1002.83 1002.87 1003.04 1003.03 1003.45 1004.26 1004.96 1005.10 1005.18 1006.11 1006.82 1007.04 1007.59 1008.59 1009.78 1010.26 1012.37 1013.39 1013.13 1012.18 1012.10 1013.24 1013.92 1013.80 1014.12 1014.90 1015.22 1015.43 1015.76 1015.93 1016.12 1016.45 1016.54 1016.72 1016.95 1017.00 1017.05 1017.16 1017.44 1017.40
Thickness
5815 5816 5817 5813 5792 5787 5771 5774 5787 5779 5777 5786 5788 5779 5773 5766 5759 5746 5757 5759 5758 5755 5750 5746 5744 5742 5740 5738 5737 5736 5735 5734 5732 5731 5730 5729 5729 5729 5729 5729 5729 5729 5728 5726 5725 5723 5722 5721 5721
5816 5817 5816 5805 5787 5774 5770 5784 5778 5783 5781 5787 5784 5777 5770 5758 5764 5757 5756 5758 5756 5752 5747 5745 5742 5740 5739 5737 5736 5735 5734 5733 5731 5731 5729 5728 5727 5728 5727 5726 5725 5723 5721 5720 5720 5720 5719 5718 5717
5817 5817 5807 5797 5782 5774 5775 5786 5787 5786 5789 5786 5777 5779 5769 5759 5762 5762 5764 5760 5755 5749 5746 5744 5741 5740 5738 5737 5735 5733 5731 5729 5728 5726 5724 5724 5724 5724 5723 5722 5721 5719 5717 5716 5715 5715 5714 5712 5711
5814 5814 5806 5794 5783 5789 5789 5790 5791 5783 5786 5787 5781 5765 5770 5771 5766 5767 5762 5760 5755 5750 5747 5743 5741 5739 5737 5735 5733 5730 5729 5727 5725 5722 5720 5719 5720 5720 5719 5718 5716 5714 5714 5714 5713 5712 5713 5711 5709
5811 5805 5792 5786 5787 5792 5798 5798 5793 5780 5780 5777 5779 5760 5758 5765 5769 5765 5761 5758 5753 5750 5747 5744 5740 5738 5735 5733 5731 5730 5729 5727 5725 5722 5719 5718 5717 5717 5718 5717 5715 5713 5711 5711 5711 5712 5712 5711 5709
5799 5799 5787 5781 5786 5798 5800 5802 5792 5784 5782 5773 5768 5763 5758 5764 5762 5761 5761 5757 5752 5749 5746 5743 5738 5736 5734 5732 5730 5729 5728 5726 5724 5722 5718 5716 5716 5717 5717 5715 5713 5711 5709 5709 5708 5708 5709 5708 5704
5796 5792 5783 5783 5788 5793 5799 5806 5794 5787 5781 5774 5777 5758 5756 5760 5762 5760 5757 5754 5750 5748 5745 5743 5740 5737 5734 5731 5728 5726 5725 5723 5722 5720 5717 5715 5713 5713 5713 5712 5710 5708 5706 5705 5705 5705 5704 5703 5702
5800 5797 5780 5785 5788 5790 5803 5802 5801 5795 5780 5790 5787 5764 5757 5764 5763 5759 5756 5753 5750 5747 5746 5743 5741 5739 5736 5732 5728 5725 5723 5722 5721 5718 5716 5714 5711 5712 5712 5711 5711 5707 5703 5703 5703 5703 5703 5702 5700
5802 5788 5783 5789 5788 5796 5805 5800 5800 5803 5788 5787 5785 5781 5781 5770 5765 5759 5755 5753 5752 5747 5746 5744 5742 5739 5737 5734 5730 5727 5726 5723 5721 5719 5717 5715 5714 5714 5713 5711 5709 5706 5703 5702 5702 5700 5699 5699 5698
5796 5786 5791 5805 5807 5804 5806 5807 5798 5792 5785 5781 5777 5779 5778 5770 5765 5760 5755 5753 5754 5751 5747 5747 5743 5741 5739 5735 5733 5731 5730 5728 5722 5721 5717 5715 5713 5713 5713 5711 5709 5706 5703 5700 5700 5700 5698 5696 5696
5791 5790 5802 5810 5813 5814 5808 5802 5803 5792 5777 5784 5778 5776 5776 5771 5764 5761 5759 5759 5759 5757 5753 5749 5745 5741 5740 5738 5732 5731 5729 5727 5725 5722 5719 5717 5714 5713 5713 5712 5711 5708 5704 5704 5701 5701 5700 5696 5695
5788 5800 5807 5815 5814 5814 5809 5813 5796 5798 5791 5799 5793 5785 5779 5772 5767 5764 5762 5761 5760 5757 5756 5753 5749 5744 5740 5738 5734 5731 5729 5728 5726 5724 5720 5718 5716 5713 5712 5711 5710 5707 5704 5703 5702 5699 5696 5696 5694
5791 5801 5806 5814 5813 5818 5820 5809 5803 5795 5798 5801 5793 5783 5778 5776 5773 5769 5769 5765 5764 5760 5758 5756 5754 5749 5743 5739 5737 5734 5732 5730 5729 5725 5722 5719 5715 5714 5713 5711 5709 5707 5703 5701 5699 5698 5697 5695 5692
5802 5801 5804 5809 5808 5814 5812 5804 5806 5797 5801 5791 5784 5779 5780 5776 5774 5771 5769 5768 5766 5765 5761 5759 5756 5750 5746 5743 5739 5736 5733 5732 5731 5730 5726 5721 5718 5716 5713 5711 5709 5707 5705 5702 5699 5697 5696 5695 5692
5798 5792 5796 5801 5806 5806 5815 5793 5798 5801 5801 5788 5783 5781 5780 5777 5776 5775 5775 5772 5771 5770 5767 5761 5756 5752 5749 5747 5742 5739 5735 5732 5731 5730 5727 5724 5721 5718 5714 5712 5710 5705 5702 5700 5696 5693 5689 5690 5689
5789 5790 5784 5794 5801 5804 5811 5796 5811 5807 5799 5789 5785 5782 5780 5778 5780 5780 5779 5774 5773 5772 5769 5764 5761 5756 5751 5748 5743 5739 5734 5731 5729 5727 5726 5723 5720 5717 5715 5714 5710 5706 5702 5699 5696 5691 5688 5686 5684
5778 5775 5778 5781 5799 5800 5801 5798 5813 5808 5801 5794 5789 5785 5783 5783 5780 5782 5782 5780 5777 5774 5771 5768 5764 5760 5755 5748 5742 5738 5735 5732 5729 5727 5725 5722 5719 5714 5710 5708 5708 5704 5700 5696 5694 5690 5686 5682 5679
5768 5770 5773 5777 5792 5797 5794 5796 5803 5804 5799 5798 5796 5793 5789 5786 5788 5791 5787 5787 5781 5777 5772 5768 5763 5759 5753 5746 5740 5737 5733 5730 5729 5727 5726 5723 5719 5714 5709 5707 5704 5700 5697 5696 5692 5688 5684 5681 5679
5769 5772 5777 5780 5790 5788 5791 5795 5802 5800 5797 5798 5800 5797 5796 5795 5800 5797 5794 5791 5784 5778 5773 5768 5764 5760 5751 5744 5740 5735 5732 5728 5726 5725 5723 5720 5719 5717 5712 5709 5704 5700 5698 5694 5689 5686 5682 5680 5677
5763 5761 5764 5776 5781 5784 5788 5787 5801 5797 5802 5805 5803 5800 5802 5802 5800 5799 5797 5792 5788 5785 5779 5770 5766 5759 5753 5751 5748 5743 5734 5729 5725 5721 5717 5716 5716 5712 5708 5705 5701 5697 5695 5689 5688 5684 5681 5679 5677
5754 5759 5758 5767 5772 5774 5769 5769 5778 5795 5804 5806 5809 5809 5805 5807 5803 5803 5800 5796 5792 5787 5781 5775 5771 5764 5756 5755 5748 5741 5735 5729 5723 5719 5715 5715 5715 5710 5702 5702 5699 5696 5693 5691 5685 5684 5678 5675 5672
5746 5770 5768 5760 5757 5751 5766 5753 5766 5784 5790 5799 5807 5807 5810 5810 5810 5808 5804 5799 5796 5794 5788 5781 5774 5765 5760 5754 5748 5741 5737 5728 5726 5720 5714 5711 5709 5707 5703 5697 5699 5696 5692 5690 5685 5679 5678 5671 5665
5757 5765 5762 5759 5755 5753 5753 5753 5775 5776 5787 5802 5811 5816 5816 5818 5816 5813 5809 5809 5806 5799 5791 5782 5773 5764 5759 5751 5749 5742 5735 5730 5723 5720 5714 5709 5705 5705 5702 5695 5690 5694 5689 5682 5679 5677 5673 5668 5661
5766 5754 5746 5743 5747 5734 5762 5758 5770 5779 5800 5817 5825 5826 5825 5822 5820 5820 5818 5812 5807 5801 5789 5782 5774 5766 5760 5750 5748 5742 5734 5726 5720 5718 5714 5709 5705 5701 5699 5690 5685 5682 5683 5676 5671 5673 5667 5659 5655
5753 5745 5729 5724 5725 5732 5748 5742 5773 5792 5808 5821 5832 5833 5830 5827 5821 5821 5817 5813 5808 5800 5789 5780 5773 5764 5757 5748 5744 5741 5735 5726 5716 5712 5709 5708 5702 5699 5693 5688 5680 5681 5676 5673 5665 5666 5662 5654 5650
5742 5742 5733 5708 5720 5740 5738 5739 5772 5800 5809 5816 5820 5826 5829 5832 5832 5828 5830 5823 5815 5804 5792 5782 5777 5764 5755 5744 5737 5736 5731 5725 5717 5713 5706 5701 5700 5694 5689 5681 5675 5677 5673 5668 5662 5663 5654 5646 5640
5735 5730 5746 5726 5717 5723 5746 5757 5782 5797 5802 5809 5818 5819 5822 5832 5836 5836 5833 5824 5812 5793 5775 5761 5752 5745 5750 5746 5735 5724 5722 5720 5717 5708 5700 5695 5691 5685 5680 5674 5671 5672 5667 5662 5659 5657 5648 5638 5631
5740 5743 5724 5725 5705 5705 5733 5737 5755 5783 5797 5807 5810 5811 5813 5820 5828 5824 5818 5806 5795 5784 5766 5763 5746 5717 5720 5733 5725 5721 5720 5715 5711 5704 5697 5691 5685 5679 5675 5669 5666 5666 5661 5654 5649 5639 5632 5625 5621
5729 5729 5723 5723 5722 5715 5710 5734 5776 5779 5788 5794 5805 5803 5800 5802 5807 5805 5796 5791 5790 5785 5775 5765 5768 5731 5708 5705 5716 5720 5715 5710 5706 5701 5694 5686 5680 5675 5669 5664 5660 5655 5648 5640 5635 5628 5621 5613 5607
5728 5730 5727 5713 5709 5714 5715 5730 5777 5777 5782 5786 5792 5791 5788 5785 5790 5794 5787 5782 5781 5776 5766 5750 5745 5714 5695 5697 5709 5712 5708 5701 5699 5694 5685 5679 5672 5666 5660 5655 5646 5640 5635 5629 5622 5616 5610 5600 5595